VIV4125 MMGL-MMMX

Flight info

Callsign VIV4125
Flight time 0h 56m
Altitude 35000
Route EMIRI1B EMIRI UT119 ESPOS ESPOS3A
Aircraft A320/M-SDE3FGHIRWY/LB1

Departure

Time 2026-05-06 01:41
Airport Guadalajara International Airport (MMGL)

Arrival

Time 2026-05-06 02:37
Airport Mexico City Benito Juárez International Airport (MMMX)
Time Latitude Longitude Altitude Speed Heading
2026-05-06 01:10 20.52336 -103.30182 5020 ft 0 kts 199°
2026-05-06 01:28 20.52338 -103.30181 5019 ft 2 kts 199°
2026-05-06 01:28 20.52353 -103.30176 5016 ft 2 kts 201°
2026-05-06 01:29 20.52368 -103.30170 5014 ft 2 kts 202°
2026-05-06 01:29 20.52383 -103.30163 5019 ft 2 kts 219°
2026-05-06 01:29 20.52389 -103.30149 5019 ft 1 kts 293°
2026-05-06 01:29 20.52388 -103.30146 5019 ft 0 kts 289°
2026-05-06 01:30 20.52388 -103.30147 5019 ft 0 kts 289°
2026-05-06 01:30 20.52389 -103.30149 5019 ft 0 kts 289°
2026-05-06 01:31 20.52389 -103.30151 5019 ft 0 kts 289°
2026-05-06 01:33 20.52390 -103.30153 5019 ft 2 kts 289°
2026-05-06 01:33 20.52404 -103.30196 5018 ft 3 kts 289°
2026-05-06 01:34 20.52396 -103.30204 5019 ft 6 kts 215°
2026-05-06 01:34 20.52319 -103.30239 5018 ft 17 kts 204°
2026-05-06 01:34 20.52196 -103.30262 5017 ft 16 kts 136°
2026-05-06 01:35 20.52149 -103.30151 5017 ft 17 kts 109°
2026-05-06 01:35 20.52106 -103.30017 5019 ft 23 kts 109°
2026-05-06 01:35 20.52023 -103.29833 5016 ft 31 kts 126°
2026-05-06 01:35 20.51903 -103.29658 5020 ft 22 kts 126°
2026-05-06 01:36 20.51808 -103.29521 5017 ft 23 kts 126°
2026-05-06 01:36 20.51711 -103.29380 5020 ft 24 kts 126°
2026-05-06 01:37 20.51650 -103.29286 5018 ft 0 kts 124°
2026-05-06 01:37 20.51646 -103.29281 5020 ft 6 kts 125°
2026-05-06 01:37 20.51581 -103.29212 5020 ft 18 kts 158°
2026-05-06 01:37 20.51499 -103.29234 5020 ft 0 kts 203°
2026-05-06 01:38 20.51498 -103.29235 5020 ft 0 kts 203°
2026-05-06 01:39 20.51495 -103.29236 5020 ft 4 kts 203°
2026-05-06 01:39 20.51430 -103.29279 5020 ft 15 kts 243°
2026-05-06 01:40 20.51457 -103.29388 5021 ft 20 kts 288°
2026-05-06 01:40 20.51534 -103.29561 5021 ft 32 kts 295°
2026-05-06 01:40 20.51731 -103.30039 5022 ft 112 kts 294°
2026-05-06 01:40 20.52135 -103.31008 5025 ft 171 kts 293°
2026-05-06 01:41 20.52608 -103.32124 6126 ft 151 kts 292°
2026-05-06 01:41 20.53032 -103.33168 6581 ft 162 kts 295°
2026-05-06 01:41 20.53551 -103.34344 6886 ft 186 kts 295°
2026-05-06 01:41 20.54131 -103.35649 7291 ft 211 kts 295°
2026-05-06 01:42 20.54784 -103.37149 7840 ft 233 kts 294°
2026-05-06 01:42 20.55425 -103.38653 8642 ft 241 kts 293°
2026-05-06 01:42 20.56087 -103.40242 9626 ft 245 kts 293°
2026-05-06 01:42 20.56780 -103.41930 10589 ft 250 kts 291°
2026-05-06 01:43 20.57485 -103.43661 11453 ft 259 kts 291°
2026-05-06 01:43 20.58166 -103.45345 12231 ft 267 kts 291°
2026-05-06 01:43 20.58856 -103.47249 13035 ft 278 kts 280°
2026-05-06 01:43 20.58762 -103.49344 13463 ft 295 kts 247°
2026-05-06 01:44 20.57581 -103.51123 14064 ft 301 kts 215°
2026-05-06 01:44 20.55688 -103.52073 14797 ft 305 kts 193°
2026-05-06 01:44 20.53544 -103.52278 15381 ft 320 kts 174°
2026-05-06 01:44 20.51398 -103.51529 15610 ft 345 kts 150°
2026-05-06 01:45 20.49581 -103.49719 15828 ft 370 kts 131°
2026-05-06 01:45 20.47926 -103.47501 16378 ft 381 kts 130°
2026-05-06 01:45 20.46304 -103.45257 17056 ft 387 kts 129°
2026-05-06 01:45 20.44670 -103.42978 17802 ft 391 kts 129°
2026-05-06 01:46 20.43006 -103.40664 18502 ft 396 kts 129°
2026-05-06 01:46 20.41313 -103.38329 19135 ft 399 kts 130°
2026-05-06 01:46 20.39599 -103.35987 19784 ft 403 kts 130°
2026-05-06 01:46 20.37865 -103.33638 20202 ft 405 kts 130°
2026-05-06 01:47 20.36106 -103.31266 20869 ft 408 kts 131°
2026-05-06 01:47 20.34330 -103.28875 21495 ft 412 kts 130°
2026-05-06 01:47 20.32546 -103.26470 22049 ft 415 kts 131°
2026-05-06 01:47 20.30753 -103.24049 22614 ft 418 kts 131°
2026-05-06 01:48 20.28953 -103.21618 22788 ft 415 kts 131°
2026-05-06 01:48 20.27178 -103.19218 22803 ft 411 kts 131°
2026-05-06 01:48 20.25414 -103.16832 22802 ft 410 kts 131°
2026-05-06 01:48 20.23648 -103.14446 22830 ft 409 kts 131°
2026-05-06 01:49 20.21872 -103.12047 23235 ft 414 kts 131°
2026-05-06 01:49 20.20097 -103.09651 23814 ft 416 kts 131°
2026-05-06 01:49 20.18285 -103.07205 24297 ft 420 kts 131°
2026-05-06 01:49 20.16458 -103.04746 24728 ft 425 kts 131°
2026-05-06 01:50 20.14619 -103.02279 25161 ft 429 kts 131°
2026-05-06 01:50 20.12771 -102.99801 25572 ft 434 kts 131°
2026-05-06 01:50 20.10882 -102.97266 26034 ft 438 kts 131°
2026-05-06 01:50 20.08984 -102.94712 26467 ft 442 kts 131°
2026-05-06 01:51 20.07068 -102.92129 26893 ft 447 kts 131°
2026-05-06 01:51 20.05133 -102.89521 27292 ft 451 kts 131°
2026-05-06 01:51 20.03170 -102.86876 27714 ft 456 kts 131°
2026-05-06 01:51 20.01189 -102.84212 28133 ft 460 kts 131°
2026-05-06 01:52 19.99192 -102.81529 28594 ft 464 kts 131°
2026-05-06 01:52 19.97180 -102.78830 29073 ft 467 kts 131°
2026-05-06 01:52 19.95155 -102.76119 29516 ft 471 kts 131°
2026-05-06 01:52 19.93107 -102.73378 30089 ft 472 kts 131°
2026-05-06 01:53 19.91102 -102.70689 30644 ft 471 kts 131°
2026-05-06 01:53 19.89054 -102.67948 31224 ft 471 kts 131°
2026-05-06 01:53 19.87016 -102.65220 31825 ft 471 kts 131°
2026-05-06 01:53 19.84979 -102.62495 32432 ft 470 kts 131°
2026-05-06 01:54 19.82948 -102.59778 33052 ft 470 kts 131°
2026-05-06 01:54 19.81010 -102.56950 33680 ft 473 kts 124°
2026-05-06 01:54 19.79543 -102.53892 34245 ft 476 kts 115°
2026-05-06 01:54 19.78305 -102.50614 34663 ft 476 kts 114°
2026-05-06 01:55 19.77085 -102.47401 34802 ft 475 kts 114°
2026-05-06 01:55 19.75840 -102.44146 34868 ft 476 kts 114°
2026-05-06 01:55 19.73321 -102.37606 34865 ft 475 kts 114°
2026-05-06 01:56 19.70826 -102.31125 34873 ft 475 kts 114°
2026-05-06 01:56 19.68338 -102.24663 34876 ft 476 kts 114°
2026-05-06 01:57 19.65838 -102.18174 34947 ft 476 kts 114°
2026-05-06 01:57 19.63332 -102.11665 35011 ft 476 kts 114°
2026-05-06 01:58 19.60826 -102.05155 35049 ft 476 kts 114°
2026-05-06 01:58 19.58309 -101.98648 35069 ft 476 kts 114°
2026-05-06 01:59 19.55790 -101.92152 35072 ft 476 kts 114°
2026-05-06 01:59 19.53280 -101.85662 35045 ft 476 kts 114°
2026-05-06 02:00 19.50781 -101.79223 35002 ft 475 kts 114°
2026-05-06 02:00 19.48262 -101.72757 34944 ft 475 kts 114°
2026-05-06 02:01 19.45741 -101.66285 34884 ft 475 kts 114°
2026-05-06 02:01 19.43223 -101.59815 34871 ft 474 kts 114°
2026-05-06 02:02 19.40705 -101.53354 34855 ft 474 kts 114°
2026-05-06 02:02 19.38191 -101.46895 34852 ft 475 kts 114°
2026-05-06 02:03 19.35661 -101.40425 34823 ft 475 kts 114°
2026-05-06 02:03 19.33128 -101.33971 34825 ft 475 kts 114°
2026-05-06 02:04 19.30617 -101.27545 34764 ft 475 kts 114°
2026-05-06 02:04 19.28096 -101.21088 34766 ft 474 kts 114°
2026-05-06 02:05 19.25560 -101.14635 34766 ft 474 kts 114°
2026-05-06 02:05 19.23450 -101.09282 34773 ft 474 kts 114°
2026-05-06 02:06 19.20909 -101.02836 34772 ft 474 kts 114°
2026-05-06 02:06 19.18377 -100.96392 34726 ft 474 kts 114°
2026-05-06 02:07 19.15836 -100.89944 34727 ft 474 kts 114°
2026-05-06 02:07 19.13291 -100.83516 34709 ft 475 kts 115°
2026-05-06 02:08 19.10745 -100.77087 34711 ft 474 kts 114°
2026-05-06 02:08 19.08192 -100.70634 34702 ft 474 kts 115°
2026-05-06 02:09 19.05661 -100.64235 34695 ft 474 kts 114°
2026-05-06 02:09 19.03109 -100.57804 34696 ft 474 kts 115°
2026-05-06 02:10 19.00560 -100.51379 34714 ft 474 kts 114°
2026-05-06 02:10 18.98006 -100.44960 34712 ft 474 kts 114°
2026-05-06 02:11 18.95447 -100.38553 34735 ft 473 kts 114°
2026-05-06 02:11 18.92895 -100.32152 34735 ft 473 kts 114°
2026-05-06 02:12 18.90340 -100.25750 34776 ft 473 kts 114°
2026-05-06 02:12 18.87784 -100.19345 34771 ft 473 kts 114°
2026-05-06 02:13 18.85248 -100.12993 34775 ft 472 kts 114°
2026-05-06 02:13 18.82700 -100.06622 34792 ft 472 kts 114°
2026-05-06 02:14 18.80143 -100.00250 34790 ft 472 kts 115°
2026-05-06 02:14 18.77580 -99.93872 34833 ft 471 kts 115°
2026-05-06 02:15 18.75288 -99.87420 34846 ft 471 kts 104°
2026-05-06 02:15 18.74884 -99.80516 34099 ft 476 kts 84°
2026-05-06 02:16 18.75580 -99.77061 32892 ft 486 kts 72°
2026-05-06 02:16 18.76855 -99.73762 31452 ft 485 kts 66°
2026-05-06 02:16 18.78245 -99.70548 29576 ft 489 kts 67°
2026-05-06 02:16 18.79651 -99.67274 27338 ft 491 kts 67°
2026-05-06 02:17 18.81050 -99.63989 25549 ft 485 kts 67°
2026-05-06 02:17 18.82412 -99.60773 23967 ft 474 kts 68°
2026-05-06 02:17 18.83734 -99.57645 22313 ft 461 kts 68°
2026-05-06 02:17 18.85026 -99.54586 20744 ft 447 kts 68°
2026-05-06 02:18 18.86255 -99.51675 20056 ft 424 kts 68°
2026-05-06 02:18 18.87458 -99.48825 19365 ft 422 kts 68°
2026-05-06 02:18 18.88641 -99.46018 18917 ft 410 kts 67°
2026-05-06 02:18 18.89763 -99.43366 18742 ft 380 kts 67°
2026-05-06 02:19 18.90802 -99.40917 18546 ft 349 kts 68°
2026-05-06 02:19 18.91755 -99.38674 18384 ft 321 kts 67°
2026-05-06 02:19 18.92631 -99.36608 18252 ft 306 kts 68°
2026-05-06 02:19 18.93488 -99.34576 17793 ft 297 kts 68°
2026-05-06 02:20 18.95161 -99.30588 17706 ft 298 kts 68°
2026-05-06 02:20 18.95828 -99.28552 17705 ft 296 kts 81°
2026-05-06 02:20 18.95909 -99.26385 17710 ft 303 kts 95°
2026-05-06 02:21 18.95983 -99.24058 17707 ft 323 kts 76°
2026-05-06 02:21 18.97025 -99.21972 17578 ft 325 kts 50°
2026-05-06 02:21 18.98638 -99.20288 17256 ft 327 kts 44°
2026-05-06 02:21 19.00333 -99.18736 17106 ft 326 kts 42°
2026-05-06 02:22 19.02028 -99.17214 16975 ft 315 kts 43°
2026-05-06 02:22 19.03650 -99.15711 16906 ft 305 kts 44°
2026-05-06 02:22 19.05198 -99.14213 16754 ft 298 kts 45°
2026-05-06 02:22 19.06698 -99.12705 16626 ft 297 kts 46°
2026-05-06 02:23 19.08185 -99.11178 16328 ft 300 kts 46°
2026-05-06 02:23 19.09696 -99.09613 15893 ft 304 kts 46°
2026-05-06 02:23 19.11172 -99.08078 15574 ft 293 kts 46°
2026-05-06 02:23 19.12628 -99.06560 15102 ft 299 kts 47°
2026-05-06 02:24 19.14118 -99.05004 14390 ft 303 kts 45°
2026-05-06 02:24 19.15680 -99.03515 13917 ft 296 kts 34°
2026-05-06 02:24 19.17587 -99.02828 13795 ft 290 kts
2026-05-06 02:24 19.19511 -99.03171 13502 ft 278 kts 336°
2026-05-06 02:25 19.21024 -99.04360 13143 ft 269 kts 317°
2026-05-06 02:25 19.22397 -99.05626 12813 ft 259 kts 329°
2026-05-06 02:25 19.24061 -99.06195 12496 ft 248 kts 359°
2026-05-06 02:25 19.25695 -99.05857 12388 ft 236 kts 21°
2026-05-06 02:26 19.27236 -99.05236 12406 ft 236 kts 23°
2026-05-06 02:26 19.28737 -99.04596 12439 ft 223 kts 24°
2026-05-06 02:26 19.30086 -99.04017 12449 ft 200 kts 24°
2026-05-06 02:26 19.31317 -99.03503 12461 ft 183 kts 23°
2026-05-06 02:27 19.32430 -99.03035 12488 ft 173 kts 23°
2026-05-06 02:27 19.33534 -99.02565 12487 ft 170 kts 23°
2026-05-06 02:27 19.34629 -99.02106 12498 ft 169 kts 24°
2026-05-06 02:27 19.35726 -99.01651 12506 ft 169 kts 24°
2026-05-06 02:28 19.36805 -99.01196 12510 ft 169 kts 24°
2026-05-06 02:28 19.37907 -99.00762 12515 ft 169 kts 23°
2026-05-06 02:28 19.38763 -98.99972 12497 ft 164 kts 66°
2026-05-06 02:28 19.38819 -98.98804 12501 ft 164 kts 111°
2026-05-06 02:29 19.38057 -98.97946 12502 ft 165 kts 152°
2026-05-06 02:29 19.36976 -98.97531 12492 ft 166 kts 162°
2026-05-06 02:29 19.35841 -98.97194 12483 ft 178 kts 162°
2026-05-06 02:29 19.34534 -98.96821 12447 ft 208 kts 164°
2026-05-06 02:30 19.33099 -98.96412 12431 ft 218 kts 163°
2026-05-06 02:30 19.31611 -98.96046 12418 ft 221 kts 172°
2026-05-06 02:30 19.30120 -98.96293 12394 ft 213 kts 202°
2026-05-06 02:30 19.29002 -98.97195 12389 ft 195 kts 231°
2026-05-06 02:31 19.28372 -98.98405 12408 ft 184 kts 244°
2026-05-06 02:31 19.27833 -98.99617 12410 ft 182 kts 244°
2026-05-06 02:31 19.27300 -99.00800 12418 ft 174 kts 243°
2026-05-06 02:31 19.26753 -99.02006 12411 ft 192 kts 242°
2026-05-06 02:32 19.26152 -99.03331 12402 ft 206 kts 244°
2026-05-06 02:32 19.25505 -99.04762 12381 ft 223 kts 244°
2026-05-06 02:32 19.25013 -99.06334 12374 ft 229 kts 265°
2026-05-06 02:32 19.25318 -99.07948 12384 ft 229 kts 297°
2026-05-06 02:33 19.26431 -99.09212 12391 ft 244 kts 326°
2026-05-06 02:33 19.27376 -99.09875 12406 ft 248 kts 327°
2026-05-06 02:33 19.30696 -99.12274 12452 ft 250 kts 326°
2026-05-06 02:34 19.32138 -99.13327 12062 ft 253 kts 326°
2026-05-06 02:34 19.33627 -99.14329 11437 ft 254 kts 335°
2026-05-06 02:34 19.35309 -99.14864 10822 ft 245 kts 354°
2026-05-06 02:34 19.36988 -99.14825 10256 ft 238 kts 11°
2026-05-06 02:35 19.38512 -99.14288 9660 ft 232 kts 28°
2026-05-06 02:35 19.39789 -99.13333 9257 ft 218 kts 44°
2026-05-06 02:35 19.40693 -99.12162 8908 ft 192 kts 59°
2026-05-06 02:35 19.41351 -99.10998 8257 ft 175 kts 61°
2026-05-06 02:36 19.41942 -99.09942 7784 ft 161 kts 59°
2026-05-06 02:36 19.42502 -99.08944 7512 ft 155 kts 60°
2026-05-06 02:36 19.43045 -99.07972 7324 ft 151 kts 60°
2026-05-06 02:36 19.43533 -99.07096 7303 ft 105 kts 60°
2026-05-06 02:37 19.43753 -99.06703 7303 ft 32 kts 59°
2026-05-06 02:37 19.43746 -99.06610 7303 ft 10 kts 169°
2026-05-06 02:37 19.43718 -99.06612 7303 ft 1 kts 172°
2026-05-06 02:37 19.43711 -99.06610 7303 ft 2 kts 171°
2026-05-06 02:38 19.43709 -99.06610 7303 ft 0 kts 172°
2026-05-06 02:39 19.43707 -99.06610 7303 ft 1 kts 172°
2026-05-06 02:39 19.43696 -99.06615 7303 ft 4 kts 204°
2026-05-06 02:39 19.43643 -99.06649 7303 ft 13 kts 212°
2026-05-06 02:40 19.43540 -99.06710 7303 ft 20 kts 207°
2026-05-06 02:40 19.43482 -99.06741 7303 ft 3 kts 206°
2026-05-06 02:40 19.43453 -99.06756 7303 ft 6 kts 206°
2026-05-06 02:40 19.43406 -99.06782 7303 ft 9 kts 207°
2026-05-06 02:41 19.43341 -99.06823 7303 ft 12 kts 225°
2026-05-06 02:41 19.43284 -99.06902 7303 ft 15 kts 237°
2026-05-06 02:41 19.43224 -99.07006 7303 ft 17 kts 239°
2026-05-06 02:41 19.43182 -99.07136 7303 ft 20 kts 252°
2026-05-06 02:42 19.43109 -99.07273 7303 ft 23 kts 239°
2026-05-06 02:42 19.43022 -99.07432 7303 ft 26 kts 240°
2026-05-06 02:42 19.42932 -99.07591 7303 ft 23 kts 239°
2026-05-06 02:42 19.42851 -99.07747 7303 ft 26 kts 240°
2026-05-06 02:43 19.42794 -99.07851 7303 ft 15 kts 240°
2026-05-06 02:43 19.42730 -99.07865 7303 ft 10 kts 153°
2026-05-06 02:43 19.42655 -99.07823 7303 ft 14 kts 150°
2026-05-06 02:43 19.42569 -99.07772 7303 ft 9 kts 150°
2026-05-06 02:44 19.42501 -99.07773 7303 ft 12 kts 215°
2026-05-06 02:44 19.42452 -99.07808 7303 ft 0 kts 214°
2026-05-06 02:44 19.42450 -99.07810 7303 ft 0 kts 214°